GFSCGP_925_thetae_150.txt.gz
Theta_e
316 319 321 322 321 321 320 319 320 319 317 316 318 319 319 318 320 322 323 324 326 326 325 320 316 313 311 311 312 313 313 312 310 310 309 309 307 305 303 301 301 301 301 301
315 318 319 319 318 319 319 318 320 320 318 316 318 319 319 318 317 318 321 322 324 325 324 320 316 313 311 311 311 311 312 311 310 310 310 308 306 304 302 300 300 300 300 300
321 323 318 317 318 317 319 320 321 321 319 317 318 320 321 320 318 317 317 319 321 323 324 321 316 313 312 311 311 310 311 310 310 309 307 305 303 302 301 300 300 299 299 299
321 319 320 320 319 318 321 320 317 318 319 324 318 323 323 322 319 316 316 317 318 320 322 322 317 314 312 311 310 309 309 309 309 308 307 306 307 305 302 300 299 298 298 298
320 316 315 317 319 318 319 317 317 318 320 322 321 321 323 320 320 319 316 317 318 319 320 322 318 314 312 311 309 307 307 307 307 308 307 308 306 302 300 299 299 298 297 297
319 317 314 315 313 313 315 316 317 317 319 323 322 322 324 323 319 318 318 316 317 318 319 320 317 314 312 310 307 306 306 306 306 306 306 306 304 301 300 299 298 298 297 297
320 319 316 315 316 316 314 317 322 322 321 323 320 320 322 321 318 317 317 318 319 318 319 319 317 314 311 309 306 305 305 304 304 304 304 303 301 300 300 299 298 297 297 296
319 320 317 317 316 318 318 318 322 327 326 324 317 320 320 319 318 318 318 318 318 319 318 318 316 314 311 308 306 304 304 303 302 301 301 300 300 300 299 298 297 296 296 295
318 317 314 314 313 315 317 318 317 321 322 325 322 321 320 318 319 318 318 319 319 318 318 317 316 313 311 307 305 303 302 300 300 300 299 298 298 298 297 297 295 294 293 293
315 316 313 313 312 313 315 316 321 322 326 325 320 321 322 319 318 318 319 318 318 318 316 315 315 312 310 307 304 302 301 300 299 299 298 298 297 297 296 295 293 292 291 292
314 316 315 313 314 314 314 315 315 317 321 323 319 318 316 318 318 318 316 316 317 317 317 315 313 311 308 305 303 301 300 299 298 298 298 297 296 295 294 292 291 290 290 291
312 314 314 312 312 310 311 312 314 319 318 321 321 318 315 316 314 312 313 313 314 314 315 315 313 309 307 305 303 301 300 299 298 298 297 296 295 294 292 290 289 289 289 290
310 311 311 308 310 311 313 309 310 311 314 316 318 315 313 312 311 310 313 314 314 315 314 313 311 309 306 304 303 301 299 299 298 297 296 294 293 292 290 289 288 288 288 289
309 309 312 311 308 309 309 308 308 311 314 311 310 309 308 308 309 310 313 313 314 315 314 312 310 308 305 304 302 300 298 298 297 295 293 292 291 290 289 287 287 287 288 288
309 312 312 311 309 308 309 309 309 310 310 312 310 309 309 309 310 311 312 312 312 313 312 310 309 307 304 303 301 299 297 297 295 293 292 292 290 289 288 287 287 286 287 287
308 312 308 309 309 309 309 308 309 310 310 309 310 311 310 310 310 310 310 310 312 311 311 309 307 306 303 301 300 299 297 295 294 293 292 290 289 288 287 286 285 285 286 286
306 307 307 308 307 309 310 309 309 309 309 311 314 312 310 309 309 309 310 311 311 312 309 308 307 305 303 301 300 299 296 294 293 292 290 288 288 287 286 284 284 284 285 285
300 302 305 306 305 307 305 305 306 307 307 308 308 309 310 309 309 310 311 311 311 311 311 308 304 303 302 300 297 295 294 292 291 290 288 287 286 285 284 283 283 283 284 283
299 301 303 304 303 302 302 304 306 308 308 307 308 308 308 309 310 310 309 308 309 309 309 308 305 302 299 296 294 292 291 291 289 288 287 286 285 284 283 282 282 282 282 282
301 301 304 305 305 304 304 304 305 307 310 307 308 309 308 308 311 309 309 305 303 301 301 303 304 302 298 295 293 291 290 290 289 288 287 286 284 283 281 281 281 281 281 281
304 305 308 307 306 306 304 304 308 309 306 307 308 308 307 308 308 309 303 298 296 298 299 300 302 301 297 295 293 291 290 290 289 287 286 285 283 281 280 280 280 280 281 280
297 299 302 305 307 309 305 306 309 308 308 308 308 307 307 308 308 305 298 298 297 296 298 298 300 299 296 295 293 291 290 289 288 286 285 283 281 280 279 279 279 280 280 279
301 302 302 302 303 306 306 307 306 306 307 308 307 307 307 307 303 298 297 299 298 295 296 296 296 295 294 294 292 290 289 287 286 285 283 282 280 280 279 279 279 280 279 280
299 301 303 304 304 305 305 305 305 306 307 307 306 307 307 301 297 296 298 298 298 295 297 295 294 294 293 292 291 289 287 286 285 284 282 281 281 280 280 280 280 280 280 280
296 298 302 303 302 302 304 305 306 305 306 305 306 306 305 303 300 300 298 297 296 295 295 295 294 293 291 288 287 287 286 286 284 284 283 282 281 281 280 280 280 280 280 280
296 297 299 300 299 302 306 306 306 306 305 306 306 305 303 302 301 299 298 297 296 295 294 293 293 291 288 287 286 286 286 286 285 285 283 282 281 281 281 280 279 278 278 277

GFSCGP_925_thetae_153.txt.gz
Theta_e
320 322 325 325 325 325 326 326 325 324 323 322 321 322 322 322 322 321 322 322 323 326 328 329 327 324 322 320 320 320 319 317 316 314 313 313 312 310 309 307 306 306 306 306
324 324 324 324 324 324 324 325 326 324 324 324 323 323 323 323 323 321 321 322 323 324 326 328 327 323 321 319 319 319 318 317 315 314 314 313 312 310 308 306 305 305 305 305
323 324 323 323 322 324 325 325 326 326 325 324 324 325 325 325 324 324 322 321 322 323 324 326 327 323 320 318 318 318 318 317 315 314 314 312 310 307 306 305 304 304 304 305
323 322 323 324 326 326 326 324 324 324 324 326 325 330 326 325 324 323 322 322 320 321 322 323 327 323 320 318 317 317 317 316 315 314 312 310 309 308 306 305 304 303 303 303
324 323 321 322 324 324 325 322 322 323 324 325 326 327 325 324 324 323 322 320 320 320 320 321 323 324 320 318 317 316 315 315 314 313 311 310 310 309 305 304 303 303 303 303
321 320 319 319 318 317 320 319 321 322 323 327 325 325 325 325 322 321 320 320 320 321 319 320 320 323 320 318 317 315 314 314 314 312 312 311 311 307 304 304 304 303 302 302
323 322 321 319 318 318 318 320 325 326 326 326 322 324 324 323 321 320 320 320 321 321 321 320 320 324 321 318 316 315 313 312 312 312 312 312 310 306 305 304 304 303 302 302
323 324 321 322 321 320 322 321 324 328 326 325 325 324 323 322 321 320 320 320 321 321 321 321 321 321 320 318 316 314 312 311 311 311 311 310 308 305 305 304 303 302 302 301
319 319 317 318 318 319 320 321 320 323 325 327 323 323 323 322 321 320 319 319 319 320 320 320 319 319 318 317 315 312 311 310 309 309 309 307 305 304 304 303 302 300 299 299
318 319 317 316 314 316 317 318 323 323 326 324 320 320 320 321 321 320 318 316 315 317 317 318 318 317 317 316 314 311 309 309 307 306 305 304 304 303 302 301 299 298 297 297
316 317 317 315 316 316 316 317 318 319 323 324 322 320 319 318 317 317 315 313 313 315 315 316 317 316 316 314 312 309 307 306 304 303 303 302 302 301 301 299 297 296 295 296
313 315 317 317 314 314 313 315 317 321 320 321 323 323 318 316 315 314 312 311 313 314 315 316 317 316 315 313 312 308 306 305 303 302 302 301 300 299 298 296 295 294 293 294
312 312 314 311 311 311 311 312 312 313 315 317 320 317 313 312 312 311 310 310 312 314 314 314 315 315 315 313 311 308 306 305 302 301 301 300 299 297 294 293 292 292 292 292
308 309 310 311 310 310 313 313 311 311 315 314 313 312 311 310 309 309 310 311 312 313 313 313 314 314 313 311 310 308 305 304 302 300 300 299 297 294 293 291 291 290 290 290
309 313 311 310 309 309 308 308 309 309 309 312 310 310 309 309 309 310 310 311 311 311 311 313 313 313 311 309 308 307 304 302 301 300 298 297 294 292 290 289 289 290 290 289
311 311 311 311 309 309 308 308 308 308 308 308 309 309 309 309 309 310 310 310 310 311 311 312 312 311 309 307 306 304 303 301 300 297 296 293 292 290 289 289 288 288 289 288
308 309 308 308 305 307 311 309 308 308 308 308 313 310 310 309 309 310 310 310 311 311 312 312 311 311 308 306 304 303 301 300 298 295 294 292 290 289 288 287 287 287 287 287
302 303 304 306 304 305 303 304 305 305 305 306 308 308 308 308 309 309 310 311 310 310 310 311 312 310 306 304 303 302 300 297 295 294 291 289 288 287 286 286 285 286 287 286
301 302 303 303 302 301 301 302 303 304 305 306 307 307 307 308 309 310 312 310 309 309 308 307 308 310 307 303 302 299 296 294 291 289 289 288 287 286 285 284 285 285 285 284
300 299 305 303 303 303 304 303 304 305 308 305 306 308 308 309 311 310 312 309 307 305 305 305 304 304 305 300 297 293 290 290 290 289 288 287 286 285 284 284 284 284 283 283
301 304 304 303 303 303 303 304 305 306 307 309 310 309 308 309 310 309 310 303 299 302 303 303 303 305 302 296 292 291 290 290 289 288 287 286 285 284 283 283 283 282 283 282
299 301 305 306 307 307 304 305 307 309 309 309 309 310 309 309 308 310 305 300 298 297 302 302 300 300 298 295 291 291 290 289 288 288 286 284 283 282 282 282 282 282 282 282
302 301 303 301 303 304 305 306 306 307 307 307 307 309 309 308 309 305 302 300 298 297 302 301 299 297 297 295 292 291 289 288 288 285 284 283 282 282 282 282 282 282 282 282
300 300 304 302 303 303 303 306 305 305 306 306 307 308 308 306 301 301 300 299 299 297 301 300 298 296 294 293 292 289 288 288 286 284 283 282 281 281 281 282 282 282 282 283
299 299 299 301 301 301 302 303 303 303 308 307 307 307 307 307 304 305 303 299 298 298 299 298 297 294 292 290 288 288 287 286 285 284 283 282 281 281 281 282 282 283 283 283
297 298 301 302 299 301 300 299 301 304 307 307 307 307 306 305 306 305 303 301 300 298 298 297 295 293 289 288 287 286 286 286 286 285 284 283 282 282 282 282 282 282 282 281

GFSCGP_925_thetae_156.txt.gz
Theta_e
320 322 324 325 325 325 325 326 327 326 326 326 325 324 323 323 322 323 323 323 323 324 327 331 333 331 329 326 324 323 321 321 319 317 316 315 314 312 311 310 309 309 308 309
324 325 324 324 325 326 326 327 326 325 325 326 325 325 325 324 324 324 324 323 323 323 323 328 333 329 327 325 323 322 321 320 318 317 315 314 313 311 310 308 307 307 307 307
325 325 325 324 324 326 325 325 326 326 325 325 326 326 325 325 325 325 324 324 323 323 323 325 332 328 325 323 322 322 321 320 318 316 315 315 313 310 307 306 306 305 306 306
323 323 323 323 324 324 326 326 327 325 326 328 325 328 326 326 326 325 326 325 325 323 323 323 330 328 325 323 321 320 320 319 318 316 315 314 311 309 307 306 305 305 305 305
324 324 324 325 324 324 326 325 326 324 324 326 325 326 326 326 325 322 322 322 322 322 323 322 322 327 325 322 321 319 319 319 318 316 315 313 311 309 307 306 304 304 304 304
323 323 322 322 321 320 320 321 322 322 323 329 325 325 326 324 322 322 321 322 323 323 322 322 321 325 324 321 320 319 318 318 318 316 314 312 311 310 307 305 305 304 304 304
323 323 323 322 321 320 318 320 324 327 329 329 324 325 325 324 322 321 322 322 322 322 322 321 321 325 323 321 320 319 318 317 316 315 314 313 312 308 306 305 305 304 304 303
322 325 323 323 323 323 321 321 325 327 330 327 325 327 324 324 322 322 320 320 320 321 322 321 320 320 323 321 320 318 317 316 315 315 314 313 313 308 306 306 305 304 303 303
320 321 320 319 320 322 324 322 322 327 326 329 325 323 321 323 323 321 320 317 316 316 317 320 319 319 319 321 319 318 316 314 314 313 313 313 313 309 306 306 305 304 303 301
319 320 318 317 316 317 320 319 325 326 328 326 321 321 322 321 320 319 319 316 314 315 316 315 315 318 317 318 318 317 315 313 312 312 311 311 310 307 306 304 303 302 300 300
317 319 318 317 317 316 317 318 320 321 325 325 323 321 320 319 317 318 317 314 312 315 315 315 315 316 317 317 316 315 313 312 310 310 309 308 306 305 304 302 301 299 298 298
315 317 318 318 316 316 317 319 319 325 322 324 323 322 319 318 315 313 312 311 311 315 315 314 313 314 315 316 315 313 311 310 308 306 305 304 304 303 302 300 298 297 297 296
313 314 315 313 312 313 314 314 315 316 320 319 321 321 315 313 313 312 311 310 310 312 313 313 313 313 313 314 315 313 310 308 307 306 304 303 302 302 300 297 295 295 295 294
310 312 313 313 310 311 311 311 312 314 319 317 316 313 313 312 311 311 310 310 310 311 311 311 313 313 313 312 312 311 309 307 306 305 303 302 301 299 296 294 293 293 293 291
309 313 312 311 309 309 308 308 308 309 311 314 313 311 310 310 310 310 310 309 310 310 310 311 313 313 311 311 310 309 308 306 305 303 302 302 300 295 292 292 291 291 291 290
310 313 313 310 309 308 308 307 306 306 306 308 309 309 309 309 309 309 309 310 310 310 311 311 311 311 311 310 309 308 307 305 304 302 301 300 295 293 291 291 290 291 289 288
310 311 309 309 307 308 310 308 307 307 307 308 309 310 310 310 310 311 310 310 310 311 310 309 309 311 310 309 308 306 305 304 302 301 298 295 292 290 289 289 289 289 288 287
305 307 308 308 303 306 304 303 303 304 304 305 306 307 308 308 310 310 311 312 312 309 309 309 309 310 311 309 306 304 303 302 300 298 294 291 289 289 288 288 288 288 287 286
301 302 305 304 302 301 301 301 302 303 303 304 304 305 305 306 308 309 312 310 309 309 309 309 307 307 307 308 306 303 301 299 296 293 291 290 288 288 288 287 287 287 287 286
300 303 304 304 303 302 303 302 303 304 306 305 308 310 310 311 312 313 312 309 307 305 306 306 305 305 306 305 302 300 296 295 291 290 288 288 288 287 286 286 286 285 285 285
302 304 303 303 303 301 302 302 304 306 308 309 308 308 310 309 310 312 309 302 301 303 303 304 303 301 300 299 297 293 292 290 289 289 289 287 286 286 285 285 285 285 284 283
301 301 303 305 304 304 303 304 306 309 309 307 308 308 310 311 309 310 304 298 298 298 303 303 302 299 298 295 293 291 290 290 289 288 287 286 285 284 285 284 284 283 283 283
302 302 304 302 304 306 305 305 305 305 307 307 308 308 308 308 306 302 298 298 296 296 300 303 300 297 296 294 292 291 289 289 288 287 285 284 284 284 283 283 283 283 282 282
300 301 303 303 302 302 302 303 304 303 305 304 305 308 309 306 303 300 296 298 297 297 301 302 300 297 295 293 292 291 289 288 287 284 284 284 283 283 283 283 283 283 283 282
300 300 301 301 301 301 301 303 302 301 301 301 303 307 308 305 304 304 301 299 299 298 300 300 298 296 292 291 290 289 288 287 285 284 283 283 283 282 282 283 283 283 283 283
298 299 300 300 300 301 301 301 301 301 300 301 303 306 307 308 307 306 305 303 302 300 298 298 295 293 290 289 288 288 287 286 285 284 283 283 282 282 282 282 282 283 283 284

GFSCGP_925_thetae_162.txt.gz
Theta_e
320 323 322 324 321 323 322 323 323 321 321 321 321 320 319 319 318 317 316 315 314 317 334 337 335 330 327 328 328 327 326 325 324 322 320 318 317 316 314 313 312 312 313 313
318 322 321 320 321 321 322 323 323 321 320 324 321 320 320 319 319 317 317 317 317 313 317 328 329 325 326 325 325 324 325 324 323 321 319 317 316 313 313 312 311 310 310 310
318 320 319 320 320 322 322 323 322 323 324 322 321 322 322 320 319 319 318 317 317 315 315 322 325 325 324 323 323 322 322 322 321 320 317 316 313 312 310 310 310 309 308 308
320 320 320 321 322 322 324 321 322 322 324 326 320 325 321 320 320 319 318 315 315 316 318 323 322 322 323 322 322 322 321 320 320 319 317 315 313 309 309 310 309 307 306 307
321 321 321 322 321 321 322 320 320 321 322 321 321 321 319 319 321 320 317 316 315 316 320 319 316 318 320 321 321 321 321 321 320 318 317 315 313 311 311 309 308 306 305 305
321 319 320 320 320 318 317 317 317 317 319 322 322 321 319 318 321 319 318 317 316 316 320 318 318 319 319 320 321 321 321 321 320 317 316 315 314 311 310 308 306 305 305 305
323 323 320 320 322 317 316 317 320 321 322 322 321 321 320 319 318 317 316 316 316 315 317 320 318 318 319 320 321 321 320 320 319 317 316 315 315 311 310 309 307 305 304 304
325 325 321 319 320 321 315 317 320 324 324 323 321 323 323 318 316 313 310 311 312 314 314 315 317 318 319 320 320 320 319 319 319 318 317 315 313 311 310 310 308 306 305 304
320 322 318 317 319 320 320 318 317 321 320 316 321 322 322 322 320 315 314 309 310 310 311 314 313 317 319 319 318 318 318 317 318 318 316 314 313 311 311 310 308 306 304 303
317 319 316 315 315 316 320 317 323 322 325 326 323 321 321 319 318 314 311 309 308 310 310 310 312 315 315 316 318 318 318 317 316 316 316 315 314 313 312 309 307 305 304 303
315 316 316 315 315 315 316 319 321 323 320 323 320 317 316 315 312 312 311 309 308 309 308 309 310 313 315 316 316 318 318 317 316 314 314 314 314 313 312 308 306 305 304 303
314 315 317 316 314 313 315 316 318 323 322 319 315 316 315 311 309 310 308 306 306 308 307 306 308 311 313 315 315 315 316 315 314 313 312 312 312 312 309 306 305 304 304 303
312 313 313 314 315 313 312 312 313 315 314 318 323 316 313 309 309 308 306 306 304 303 306 305 307 308 310 312 312 313 313 313 312 312 311 310 310 310 309 307 305 303 303 302
310 310 312 317 314 310 310 308 308 313 310 314 315 312 311 309 309 310 309 306 304 303 303 303 306 307 309 309 309 310 311 311 311 311 309 308 308 307 305 304 303 302 301 300
307 308 308 310 310 310 309 309 308 308 310 313 309 311 308 306 306 305 304 303 303 303 305 308 307 305 308 309 309 308 308 308 309 309 307 306 305 304 303 302 300 299 298 295
308 310 306 309 309 309 308 306 307 307 307 307 305 305 304 303 303 303 303 304 304 306 308 308 307 306 307 308 308 308 308 307 307 307 307 305 304 301 299 297 297 296 294 294
309 310 309 310 308 307 306 306 307 306 306 306 306 305 304 304 305 306 305 306 305 306 306 306 306 306 306 307 307 306 306 306 305 304 304 303 301 298 296 295 294 293 292 292
309 308 306 308 304 302 303 302 303 304 304 302 302 302 304 308 308 308 306 306 307 307 306 306 304 304 304 306 307 306 305 304 303 302 301 300 297 295 294 293 291 290 290 288
305 304 303 304 306 304 303 301 301 302 301 306 306 307 306 308 308 309 306 305 304 304 305 304 303 302 301 302 304 302 302 301 301 299 298 297 295 292 291 290 289 288 288 287
301 302 300 303 300 301 301 300 300 300 300 307 306 305 306 306 302 303 308 303 301 301 301 302 300 299 298 298 299 300 300 300 298 297 296 294 292 291 290 289 290 288 287 286
300 300 297 301 302 301 300 300 300 300 299 304 304 304 305 304 304 304 303 301 299 299 299 300 299 298 297 297 297 297 297 296 296 294 293 292 290 289 290 289 288 286 286 285
300 301 301 299 299 298 299 299 299 300 302 303 303 303 304 304 305 305 302 296 295 296 298 299 298 297 296 296 296 294 294 294 293 291 290 289 289 289 288 287 286 286 285 284
299 300 300 299 298 298 299 299 302 301 300 302 302 302 302 305 304 302 297 297 294 293 296 298 297 296 296 295 295 294 293 292 290 289 288 287 288 287 287 286 284 284 283 282
298 299 299 299 299 299 299 299 299 301 302 302 301 300 300 299 293 296 295 295 294 295 296 297 296 295 294 294 293 293 292 290 289 288 287 286 286 286 285 285 284 283 282 281
296 297 297 297 297 297 297 297 298 298 298 297 297 297 297 300 300 300 299 297 294 295 297 298 296 294 293 292 292 292 290 288 287 286 286 285 285 285 284 284 284 283 282 282
295 295 296 296 296 296 295 297 297 296 296 295 295 296 301 302 303 302 300 298 297 296 297 296 295 293 292 291 290 289 289 288 287 285 284 284 284 284 283 283 283 283 283 283